Location: Baia Mare
(47.6567°N, 23.5850°E)
Time: 13:43:08
(UTC+02:00)

ISS - Pass Details

Date: 02 January 2019
Orbit: 401 x 408 km, 51.6° (Epoch: 16 December)

Event Time Altitude Azimuth Distance (km) Brightness Sun altitude
Exits shadow 06:34:27 34° 324° (NW) 696 -3.1 -15.9°
Maximum altitude 06:35:10 39° 357° (N) 624 -3.1 -15.8°
Drops below altitude 10° 06:38:17 10° 69° (ENE) 1,466 -0.2 -15.3°
Sets 06:40:27 0° 77° (ENE) 2,325 1.1 -15.0°
